Location: *
(47.8307°S, 178.3954°E)
Time: 06:42:50
(UTC+00:00)

ARIANE 5 R/B - Pass Details

Date: 12 August 2024
Orbit: 747 x 793 km, 98.8° (Epoch: 18 September)

Event Time Altitude Azimuth Distance (km) Brightness Sun altitude
Rises 16:29:34 0° 13° (NNE) 3,259 5.8 -27.8°
Reaches altitude 10° 16:31:53 10° 11° (N) 2,333 5.0 -27.4°
Enters shadow 16:34:36 32° 6° (N) 1,310 3.6 -27.0°
Exits shadow 16:44:16 - 195° (SSW) 3,161 5.6 -25.4°
Sets 16:44:31 0° 195° (SSW) 3,260 5.7 -25.3°
